| time (UTC) | temp F | wind direction | speed MPH | gust MPH | rain 1hr in | rain 24hr in | rain mn in | humidity % | barometer mb |
| 20260503203133 | 57 | 51 | 0.0 | 2.0 | 0.00 | 0.00 | 0.00 | 77 | 1014.6 |
| 20260503201559 | 57 | 51 | 1.0 | 3.0 | 0.00 | 0.00 | 0.00 | 76 | 1014.6 |
| 20260503200141 | 58 | 51 | 1.0 | 2.0 | 0.00 | 0.00 | 0.00 | 76 | 1014.5 |
| 20260503194624 | 59 | 51 | 1.0 | 3.0 | 0.00 | 0.00 | 0.00 | 74 | 1014.4 |
| 20260503193130 | 59 | 51 | 0.0 | 0.0 | 0.00 | 0.00 | 0.00 | 74 | 1014.4 |
| 20260503191612 | 60 | 51 | 0.0 | 0.0 | 0.00 | 0.00 | 0.00 | 72 | 1014.3 |
| 20260503190137 | 61 | 51 | 0.0 | 1.0 | 0.00 | 0.00 | 0.00 | 71 | 1014.1 |
| 20260503184559 | 62 | 51 | 0.0 | 3.0 | 0.00 | 0.00 | 0.00 | 70 | 1014.0 |
| 20260503183124 | 63 | 51 | 0.0 | 2.0 | 0.00 | 0.00 | 0.00 | 70 | 1014.0 |
| 20260503181608 | 63 | 51 | 0.0 | 2.0 | 0.00 | 0.00 | 0.00 | 70 | 1013.9 |
| 20260503180130 | 64 | 51 | 0.0 | 2.0 | 0.00 | 0.00 | 0.00 | 68 | 1013.9 |
| 20260503174616 | 65 | 51 | 0.0 | 0.0 | 0.00 | 0.00 | 0.00 | 66 | 1013.8 |
| 20260503173134 | 66 | 51 | 0.0 | 1.0 | 0.00 | 0.00 | 0.00 | 65 | 1013.9 |
| 20260503171558 | 67 | 51 | 1.0 | 3.0 | 0.00 | 0.00 | 0.00 | 60 | 1014.0 |
| 20260503150137 | 70 | 41 | 3.0 | 5.0 | 0.00 | 0.00 | 0.00 | 53 | 1014.3 |
| 20260503120133 | 68 | 157 | 3.0 | 8.0 | 0.00 | 0.00 | 0.00 | 53 | 1016.0 |
| 20260503110142 | 68 | 164 | 2.0 | 6.0 | 0.00 | 0.00 | 0.00 | 53 | 1016.0 |
| 20260503090128 | 65 | 116 | 3.0 | 7.0 | 0.00 | 0.00 | 0.00 | 59 | 1016.7 |
| 20260503081600 | 62 | 137 | 2.0 | 5.0 | 0.00 | 0.00 | 0.00 | 66 | 1016.7 |
| 20260503080130 | 61 | 205 | 2.0 | 7.0 | 0.00 | 0.00 | 0.00 | 69 | 1016.7 |
| 20260503071605 | 60 | 168 | 1.0 | 6.0 | 0.00 | 0.00 | 0.00 | 71 | 1016.6 |
| 20260503054601 | 52 | 327.0 | 255.0 | 0.00 | 0.00 | 0.00 | 88 | 1016.7 | |
| 20260503053124 | 50 | 327.0 | 255.0 | 0.00 | 0.00 | 0.00 | 87 | 1016.6 | |
| 20260503051600 | 49 | 327.0 | 255.0 | 0.00 | 0.00 | 0.00 | 86 | 1016.5 | |
| 20260503050003 | 50 | 327.0 | 255.0 | 0.00 | 0.00 | 0.00 | 85 | 1016.5 | |
| 20260503044618 | 49 | 327.0 | 255.0 | 0.00 | 0.00 | 0.00 | 85 | 1016.5 | |
| 20260503043141 | 49 | 327.0 | 255.0 | 0.00 | 0.00 | 0.00 | 85 | 1016.4 | |
| 20260503041613 | 49 | 327.0 | 255.0 | 0.00 | 0.00 | 0.00 | 85 | 1016.5 | |
| 20260503040005 | 50 | 327.0 | 255.0 | 0.00 | 0.00 | 0.00 | 84 | 1016.5 | |
| 20260503034502 | 50 | 329 | 1.0 | 3.0 | 0.00 | 0.00 | 0.00 | 84 | 1016.7 |
| 20260503033132 | 50 | 329 | 0.0 | 3.0 | 0.00 | 0.00 | 0.00 | 83 | 1016.7 |
| 20260503031600 | 50 | 321 | 2.0 | 3.0 | 0.00 | 0.00 | 0.00 | 83 | 1016.8 |
| 20260503030001 | 50 | 321 | 1.0 | 3.0 | 0.00 | 0.00 | 0.00 | 83 | 1016.9 |
| 20260503024604 | 50 | 321 | 1.0 | 3.0 | 0.00 | 0.00 | 0.00 | 83 | 1016.9 |
| 20260503023133 | 50 | 319 | 1.0 | 2.0 | 0.00 | 0.00 | 0.00 | 84 | 1017.1 |
| 20260503021611 | 50 | 317 | 1.0 | 2.0 | 0.00 | 0.00 | 0.00 | 83 | 1017.1 |
| 20260503021501 | 50 | 317 | 1.0 | 2.0 | 0.00 | 0.00 | 0.00 | 83 | 1017.1 |
| 20260503020003 | 50 | 317 | 1.0 | 2.0 | 0.00 | 0.00 | 0.00 | 82 | 1017.1 |
| 20260503014600 | 51 | 328 | 2.0 | 4.0 | 0.00 | 0.00 | 0.00 | 82 | 1017.2 |
| 20260503013131 | 50 | 313 | 2.0 | 3.0 | 0.00 | 0.00 | 0.00 | 83 | 1017.3 |
| 20260503011609 | 50 | 290 | 1.0 | 2.0 | 0.00 | 0.00 | 0.00 | 83 | 1017.3 |
| 20260503010002 | 50 | 290 | 1.0 | 3.0 | 0.00 | 0.00 | 0.00 | 82 | 1017.3 |
| 20260503004603 | 51 | 323 | 0.0 | 3.0 | 0.00 | 0.00 | 0.00 | 81 | 1017.4 |
| 20260503003001 | 51 | 323 | 1.0 | 3.0 | 0.00 | 0.00 | 0.00 | 81 | 1017.5 |
| 20260503001606 | 52 | 296 | 2.0 | 3.0 | 0.00 | 0.00 | 0.00 | 81 | 1017.7 |
| 20260503000002 | 52 | 261 | 0.0 | 3.0 | 0.00 | 0.00 | 0.00 | 79 | 1017.8 |
| 20260502234602 | 52 | 323 | 1.0 | 3.0 | 0.00 | 0.00 | 0.00 | 80 | 1017.9 |
| 20260502234503 | 52 | 323 | 1.0 | 3.0 | 0.00 | 0.00 | 0.00 | 81 | 1017.8 |
| 20260502233001 | 53 | 323 | 1.0 | 2.0 | 0.00 | 0.00 | 0.00 | 80 | 1018.0 |
| 20260502231601 | 53 | 324 | 1.0 | 2.0 | 0.00 | 0.00 | 0.00 | 79 | 1018.1 |
| 20260502230004 | 53 | 318 | 0.0 | 4.0 | 0.00 | 0.00 | 0.00 | 79 | 1018.1 |
| 20260502224600 | 53 | 321 | 0.0 | 0.0 | 0.00 | 0.00 | 0.00 | 79 | 1018.2 |
| 20260502223128 | 53 | 329 | 0.0 | 0.0 | 0.00 | 0.00 | 0.00 | 79 | 1018.2 |
| 20260502221605 | 53 | 329 | 0.0 | 0.0 | 0.00 | 0.00 | 0.00 | 79 | 1018.3 |
| 20260502221500 | 53 | 329 | 0.0 | 0.0 | 0.00 | 0.00 | 0.00 | 79 | 1018.4 |
| 20260502220151 | 53 | 326 | 0.0 | 0.0 | 0.00 | 0.00 | 0.00 | 80 | 1018.4 |
| 20260502214554 | 53 | 326 | 0.0 | 0.0 | 0.00 | 0.00 | 0.00 | 81 | 1018.5 |
| 20260502213125 | 53 | 327 | 0.0 | 0.0 | 0.00 | 0.00 | 0.00 | 80 | 1018.4 |
| 20260502211555 | 53 | 326 | 0.0 | 0.0 | 0.00 | 0.00 | 0.00 | 79 | 1018.4 |
| 20260502210132 | 53 | 327 | 0.0 | 0.0 | 0.00 | 0.00 | 0.00 | 78 | 1018.5 |
| 20260502204607 | 54 | 326 | 0.0 | 0.0 | 0.00 | 0.00 | 0.00 | 77 | 1018.6 |